Volver al catálogo

DELTA 1 DEB

ActivoLEO
NORAD 10234·DEBRIS·🇺🇸 United States

Lanzado Jul 14, 1977 desde Cape Canaveral Space Force Station

Loading…

Próximos Pases (próximas 24 horas)

TLE

ActualizadoSource: Space-Track

Época: Sep 14, 2026, 11:25 UTC

1 10234U 77065BM  26257.47635586  .00005695  00000-0  36994-3 0  9990
2 10234  28.9447 322.5597 0267501  98.6978 264.4007 14.81091942494196

Sigue DELTA 1 DEB en tiempo real con AllMySat

Download on the App Store